Location: Kansas State University
(39.1938°N, 96.5858°W)
Time: 11:37:24
(UTC-06:00)

Daily predictions for brighter satellites

Satellite Brightness Start Highest point End
(mag) Time Altitude Azimuth Time Altitude Azimuth Time Altitude Azimuth
CZ-3A R/B 2.7 17:08:42 10° SW 17:12:09 76° NW 17:27:46 10° NE
YAOGAN 1 3.1 17:25:44 10° SE 17:29:41 36° ENE 17:33:40 10° N
Cosmos 1300 Rocket 4.2 17:25:44 10° NNW 17:30:02 61° W 17:34:15 10° S
Cosmos 2278 Rocket 3.5 17:27:12 10° SSE 17:31:17 21° E 17:35:22 10° NE
COSMOS 2406 3.3 17:28:06 10° NNW 17:33:45 58° ENE 17:39:23 10° SE
SL-8 Rocket 4.2 17:29:10 10° N 17:35:04 46° ENE 17:40:56 10° SSE
Cosmos 1378 Rocket 4.0 17:35:31 10° SSW 17:39:47 66° W 17:44:04 10° N
USA 32 4.3 17:37:37 10° SSE 17:42:36 47° E 17:47:36 10° NNE
IDEFIX/ARIANE 42P 2.6 17:37:35 10° SSE 17:42:40 58° ENE 17:47:46 10° N
Meteor 1-5 Rocket 4.2 17:39:10 10° N 17:44:32 64° E 17:50:03 10° SSE
Cosmos 2366 rocket 4.4 17:39:10 10° N 17:45:08 40° ENE 17:51:00 10° SE
OTV 4 1.3 17:43:09 10° W 17:46:04 48° S 17:48:58 10° ESE
Cosmos 2181 Rocket 4.1 17:39:51 10° S 17:46:11 85° E 17:52:38 10° N
Cosmos 1484 Rocket 3.9 17:43:52 10° ESE 17:46:46 21° ENE 17:49:39 10° NNE
Cosmos 2218 Rocket 4.2 17:40:57 10° N 17:47:01 48° ENE 17:52:59 10° SSE
CZ-3B DEB 1.9 17:44:01 10° SSW 17:47:09 58° SE 17:54:51 10° NE
Cosmos 372 Rocket 4.2 17:43:00 10° SSW 17:48:15 81° WNW 17:53:33 10° NNE
USA 234 3.9 17:46:36 10° NE 17:52:51 50° NW 17:59:05 10° WSW
Cosmos 1455 Rocket 3.7 17:48:50 10° NNE 17:52:51 34° ENE 17:56:52 10° SE
Cosmos 2082 Rocket 3.8 17:53:41 10° NNE 17:56:32 14° NE 17:57:45 13° ENE
Cosmos 1833 Rocket 4.3 17:59:53 10° NNE 18:02:29 13° NE 18:02:46 13° NE
BREEZE-M DEB (TANK) 3.8 17:56:28 10° WNW 18:03:00 65° SW 18:06:36 10° SE
NOSS 3-3 (A) 4.5 17:58:49 10° S 18:04:31 42° ESE 18:09:41 14° NE
NOSS 3-3 (C) 4.5 17:58:56 10° S 18:04:37 41° ESE 18:09:45 14° NE
SL-8 R/B 4.2 18:01:14 10° SSW 18:05:47 46° SE 18:09:02 18° ENE
Thor Agena Rocket 3.8 18:00:43 10° N 18:05:55 75° WNW 18:11:09 10° SSW
Cosmos 494 Rocket 4.3 18:02:01 10° N 18:07:00 43° ENE 18:11:59 10° SE
Okean 1 3.8 18:07:02 10° SSE 18:10:48 39° E 18:14:31 10° NNE
Cosmos 1500 4.2 18:08:53 10° NNE 18:12:06 25° ENE 18:15:19 10° SE
Cosmos 1536 4.5 18:08:23 10° NNW 18:12:10 38° W 18:15:56 10° SSW
Hubble Space Telescope 3.6 18:11:00 10° SW 18:12:20 11° SSW 18:13:40 10° S
ATLAS 2AS CENTAUR R/B 3.0 18:06:20 10° NNW 18:14:24 64° NE 18:21:53 10° SE
Meteor 1-28 Rocket 4.2 18:15:04 23° ENE 18:16:04 26° E 18:19:16 10° SSE
SL-08 R/B 4.5 18:13:02 10° N 18:19:27 80° E 18:25:44 10° S
ISS -2.2 18:16:59 10° W 18:20:04 36° NNW 18:21:48 21° NNE
Meteor 1-18 Rocket 4.1 18:14:58 10° S 18:20:33 76° E 18:26:16 10° NNE
Cosmos 2251 Rocket 3.5 18:15:19 10° NNW 18:20:41 68° ENE 18:25:57 10° SSE
SL-27 R/B 2.7 18:25:53 10° NNW 18:29:33 74° WSW 18:33:10 10° S
Cosmos 1812 2.8 18:27:17 10° S 18:31:08 76° W 18:35:00 10° N
Cosmos 1346 Rocket 3.0 18:27:58 10° SSE 18:31:41 43° E 18:32:45 34° NE
Tiangong 1 2.9 18:32:10 10° SSW 18:34:09 18° SSE 18:34:09 18° SSE
MSX 4.1 18:29:11 10° S 18:34:54 72° WSW 18:40:41 10° NNW
CZ-4 R/B 3.9 18:32:37 10° SSW 18:36:06 25° W 18:39:34 10° NW
DMSP B5D1-3 4.4 18:34:14 10° NNE 18:39:23 68° ESE 18:44:29 10° S
COSMO-SKYMED 1 2.5 18:35:05 10° NNE 18:39:26 87° WNW 18:43:47 10° SSW
Nadezhda 3 Rocket 4.0 18:34:20 10° SSE 18:40:21 56° E 18:46:26 10° NNE
Cosmos 1544 Rocket 4.5 18:36:38 10° NNW 18:40:57 50° W 18:45:16 10° SSW
Meteor 2-21 4.4 18:35:43 10° N 18:41:52 62° E 18:47:55 10° SSE
CZ-2C R/B 4.3 18:41:39 10° SSW 18:46:02 32° W 18:50:33 10° NNW
GEOS 3 Rocket 3.4 18:41:11 10° SE 18:46:18 80° NE 18:51:26 10° NNW
Cosmos 1844 Rocket 3.9 18:41:39 10° SW 18:46:51 39° WNW 18:52:06 10° N
Cosmos 1238 Rocket 4.3 18:47:44 10° SW 18:50:19 26° W 18:52:54 10° NNW
Cosmos 1975 3.0 18:49:26 10° NNW 18:53:31 72° W 18:57:31 10° S
ATLAS 3B CENTAUR R/B 4.1 18:38:27 10° WSW 18:55:32 43° S 19:00:10 22° SE
Cosmos 2297 3.7 18:52:48 10° S 18:58:17 55° ESE 18:59:27 46° ENE
Meteor 2-14 Rocket 4.3 18:59:39 10° N 19:05:50 70° E 19:11:56 10° SSE
BREEZE-M R/B 4.1 18:56:18 10° WSW 19:06:19 68° NW 19:08:02 44° NNE
Meteor 1-19 Rocket 4.1 19:04:27 10° S 19:10:10 70° E 19:12:12 41° NNE
Cosmos 2278 Rocket 2.9 19:09:26 10° SW 19:14:55 51° WNW 19:18:28 22° N
Meteor 2-21 Rocket 4.5 19:15:27 10° N 19:21:40 79° W 19:27:48 10° S
OTV 4 3.4 19:20:10 10° WSW 19:21:18 15° SW 19:21:18 15° SW
FALCON 9 R/B 3.2 19:04:11 10° WSW 19:24:26 64° S 19:26:28 47° ESE
Okean 1-7 Rocket 3.8 19:20:01 10° SSW 19:24:14 69° WSW 19:24:14 69° WSW
Meteor 1-13 Rocket 4.4 19:19:29 10° SSW 19:25:06 71° W 19:28:38 24° N
Cosmos 921 Rocket 4.2 19:23:01 10° SSW 19:25:22 33° SSW 19:25:22 33° SSW
Meteor 2-16 Rocket 4.3 19:21:15 10° N 19:27:21 86° W 19:33:26 10° S
Timation 1 Rocket 4.1 19:23:24 10° SSW 19:29:21 81° ESE 19:29:25 80° E
BREEZE M DEB (TANK) 3.4 19:26:49 10° WSW 19:32:37 47° WNW 19:32:37 47° WNW
Cosmos 1535 Rocket 4.5 19:33:14 10° N 19:39:35 80° W 19:45:48 10° S
Cosmos 2082 Rocket 2.8 19:35:45 10° NNW 19:39:41 47° NNW 19:39:41 47° NNW
Timation 2 Rocket 4.1 19:36:11 10° NNW 19:43:02 83° WSW 19:44:53 52° SSE
Cosmos 1833 Rocket 3.9 19:41:38 10° NNW 19:44:32 32° NNW 19:44:32 32° NNW
BREEZE M DEB (TANK) 4.0 19:46:41 10° NW 19:50:34 58° N 19:50:34 58° N
CZ-3B DEB 4.3 20:18:09 10° WNW 20:23:54 35° N 20:24:12 35° N
